{"data":{"norad_id":44864,"epoch":"2026-05-22T10:02:16.289376Z","epoch_age_seconds":308163,"freshness":"STALE","line1":"1 44864U 19090A   26142.41824409 -.00000051  00000+0  00000+0 0  9997","line2":"2 44864  56.5381  63.6419 0018941 297.3914 239.7429  1.86231321 43755","mean_motion":1.86231321,"eccentricity":0.0018941,"inclination_deg":56.5381,"raan_deg":63.6419,"arg_perigee_deg":297.3914,"mean_anomaly_deg":239.7429,"bstar":0,"rev_number":4375,"period_min":773.23190979245,"perigee_km":21475.162445616,"apogee_km":21580.876547656,"semimajor_km":27906.156496636,"source":"CELESTRAK","updated_at":"2026-05-25T13:38:24.223149Z"}}